Date String (YYYY-MM-DD hh:mm:ss) UTC,Instrument flags,absolute air pressure of the measurement (hPa),sample flow rate (lpm),inlet stack bypass flow (lpm),air temperature of the measurement (°C),ambient temperature measured by the external sensor (°C),aerosol sample conditioner tube jacket temperature (°C),OPC LED temperature (°C),internal box temperature (°C),relative humidity of the measurement (%),span deviation,mass concentration of particles derived from Lorenz-Mie calculation of OPC scattering (μg/m³),mass concentration of particles derived from Lorenz-Mie calculation of OPC scattering (μg/m³),mass concentration of particles derived from Lorenz-Mie calculation of OPC scattering (μg/m³)
DateTimeUTC,F1_M11,P_M11,Q1_M11,Q2_M11,T1_M11,T2_M11,T3_M11,T4_M11,T5_M11,U1_M11,ZSPAN_M11,X0_M11,X2_M11,X1_M11
2024-02-06 05:00:00,SystemResetWarning,0827.5,5.01,000.00,021.8,021.0,000.0,030.2,023.5,17.1,0000.0,0005.34,0002.16,0001.80
2024-02-06 05:01:00,SystemResetWarning,0827.4,5.00,000.00,021.8,021.0,000.0,030.2,023.5,17.1,0000.0,0004.98,0002.17,0001.83
2024-02-06 05:02:00,SystemResetWarning,0827.4,4.99,000.00,021.8,021.0,000.0,030.2,023.5,17.2,0000.0,0003.73,0002.16,0001.83
2024-02-06 05:03:00,SystemResetWarning,0827.4,5.00,000.00,021.8,021.0,000.0,030.2,023.5,17.2,0000.0,0003.65,0002.15,0001.86
2024-02-06 05:04:00,SystemResetWarning,0827.4,5.00,000.00,021.7,021.0,000.0,030.2,023.5,17.0,0000.0,0003.74,0002.17,0001.88
2024-02-06 05:05:00,SystemResetWarning,0827.4,5.00,000.00,021.7,021.0,000.0,030.2,023.5,17.1,0000.0,0003.44,0002.21,0001.89
2024-02-06 05:06:00,SystemResetWarning,0827.3,5.00,000.00,021.7,021.0,000.0,030.2,023.5,16.9,0000.0,0003.33,0002.24,0001.92
2024-02-06 05:07:00,SystemResetWarning,0827.4,5.01,000.00,021.7,021.0,000.0,030.2,023.5,16.7,0000.0,0003.37,0002.31,0001.94
2024-02-06 05:08:00,SystemResetWarning,0827.4,5.00,000.00,021.7,021.0,000.0,030.2,023.5,16.6,0000.0,0003.37,0002.31,0001.93
2024-02-06 05:09:00,SystemResetWarning,0827.3,5.00,000.00,021.7,021.0,000.0,030.2,023.5,16.8,0000.0,0003.42,0002.29,0001.90
2024-02-06 05:10:00,SystemResetWarning,0827.4,5.00,000.00,021.7,021.0,000.0,030.1,023.4,16.7,0000.0,0003.51,0002.29,0001.89
2024-02-06 05:11:00,SystemResetWarning,0827.4,5.00,000.00,021.7,021.0,000.0,030.1,023.4,16.7,0000.0,0004.40,0002.31,0001.88
2024-02-06 05:12:00,SystemResetWarning,0827.3,5.00,000.00,021.7,021.0,000.0,030.1,023.4,16.7,0000.0,0004.58,0002.30,0001.86
2024-02-06 05:13:00,SystemResetWarning,0827.3,5.00,000.00,021.7,020.9,000.0,030.1,023.4,16.6,0000.0,0004.52,0002.26,0001.85
2024-02-06 05:14:00,SystemResetWarning,0827.2,5.00,000.00,021.7,020.9,000.0,030.1,023.4,16.5,0000.0,0004.39,0002.22,0001.82
2024-02-06 05:15:00,SystemResetWarning,0827.2,5.00,000.00,021.7,020.9,000.0,030.1,023.4,16.4,0000.0,0004.23,0002.21,0001.77
2024-02-06 05:16:00,SystemResetWarning,0827.2,5.00,000.00,021.7,020.9,000.0,030.1,023.4,16.5,0000.0,0004.06,0002.15,0001.74
2024-02-06 05:17:00,SystemResetWarning,0827.3,5.00,000.00,021.6,020.9,000.0,030.1,023.4,16.6,0000.0,0003.96,0002.08,0001.70
2024-02-06 05:18:00,SystemResetWarning,0827.3,5.00,000.00,021.6,020.9,000.0,030.1,023.4,16.6,0000.0,0003.83,0002.00,0001.65
2024-02-06 05:19:00,SystemResetWarning,0827.3,4.99,000.00,021.6,020.9,000.0,030.1,023.4,16.5,0000.0,0004.56,0001.98,0001.63
2024-02-06 05:20:00,SystemResetWarning,0827.4,4.99,000.00,021.6,020.9,000.0,030.0,023.4,16.5,0000.0,0004.98,0001.95,0001.61
2024-02-06 05:21:00,SystemResetWarning,0827.4,5.00,000.00,021.6,020.9,000.0,030.0,023.4,16.7,0000.0,0004.94,0001.92,0001.58
2024-02-06 05:22:00,SystemResetWarning,0827.4,5.00,000.00,021.6,020.9,000.0,030.0,023.3,17.0,0000.0,0004.73,0001.91,0001.56
2024-02-06 05:23:00,SystemResetWarning,0827.4,5.01,000.00,021.6,020.8,000.0,030.0,023.3,17.0,0000.0,0005.16,0001.86,0001.53
2024-02-06 05:24:00,SystemResetWarning,0827.4,5.01,000.00,021.6,020.8,000.0,030.0,023.3,17.2,0000.0,0005.11,0001.82,0001.49
2024-02-06 05:25:00,SystemResetWarning,0827.4,5.00,000.00,021.6,020.8,000.0,030.0,023.3,17.2,0000.0,0005.20,0001.78,0001.46
2024-02-06 05:26:00,SystemResetWarning,0827.4,4.99,000.00,021.6,020.8,000.0,030.0,023.3,17.1,0000.0,0005.12,0001.69,0001.44
2024-02-06 05:27:00,SystemResetWarning,0827.4,4.99,000.00,021.5,020.8,000.0,030.0,023.3,17.1,0000.0,0005.04,0001.64,0001.42
2024-02-06 05:28:00,SystemResetWarning,0827.4,5.00,000.00,021.5,020.8,000.0,030.0,023.3,17.2,0000.0,0006.33,0001.60,0001.40
2024-02-06 05:29:00,SystemResetWarning,0827.4,5.01,000.00,021.5,020.8,000.0,030.0,023.2,17.3,0000.0,0006.38,0001.59,0001.39
2024-02-06 05:30:00,SystemResetWarning,0827.4,5.01,000.00,021.5,020.7,000.0,030.0,023.2,17.4,0000.0,0005.68,0001.58,0001.39
2024-02-06 05:31:00,SystemResetWarning,0827.4,4.99,000.00,021.5,020.7,000.0,029.9,023.2,17.4,0000.0,0005.10,0001.58,0001.40
2024-02-06 05:32:00,SystemResetWarning,0827.6,4.99,000.00,021.5,020.7,000.0,029.9,023.2,17.5,0000.0,0005.08,0001.58,0001.41
2024-02-06 05:33:00,SystemResetWarning,0827.6,5.01,000.00,021.5,020.7,000.0,029.9,023.2,17.5,0000.0,0004.40,0001.57,0001.43
2024-02-06 05:34:00,SystemResetWarning,0827.5,5.01,000.00,021.5,020.8,000.0,029.9,023.2,17.6,0000.0,0003.60,0001.57,0001.44
2024-02-06 05:35:00,SystemResetWarning,0827.5,5.00,000.00,021.5,020.7,000.0,029.9,023.2,17.6,0000.0,0003.59,0001.58,0001.46
2024-02-06 05:36:00,SystemResetWarning,0827.5,4.99,000.00,021.5,020.7,000.0,029.9,023.2,17.6,0000.0,0003.48,0001.60,0001.48
2024-02-06 05:37:00,SystemResetWarning,0827.5,4.99,000.00,021.4,020.7,000.0,029.9,023.2,17.5,0000.0,0003.40,0001.62,0001.51
2024-02-06 05:38:00,SystemResetWarning,0827.4,5.00,000.00,021.4,020.7,000.0,029.9,023.1,17.5,0000.0,0003.43,0001.64,0001.52
2024-02-06 05:39:00,SystemResetWarning,0827.4,5.01,000.00,021.4,020.7,000.0,029.9,023.1,17.4,0000.0,0002.61,0001.66,0001.53
2024-02-06 05:40:00,SystemResetWarning,0827.5,5.00,000.00,021.4,020.7,000.0,029.9,023.1,17.3,0000.0,0002.17,0001.70,0001.56
2024-02-06 05:41:00,SystemResetWarning,0827.6,5.00,000.00,021.4,020.6,000.0,029.8,023.1,17.2,0000.0,0002.17,0001.71,0001.56
2024-02-06 05:42:00,SystemResetWarning,0827.7,5.00,000.00,021.4,020.6,000.0,029.8,023.1,17.2,0000.0,0002.19,0001.71,0001.55
2024-02-06 05:43:00,SystemResetWarning,0827.7,5.00,000.00,021.4,020.6,000.0,029.8,023.1,17.4,0000.0,0002.21,0001.72,0001.54
2024-02-06 05:44:00,SystemResetWarning,0827.7,5.00,000.00,021.4,020.6,000.0,029.8,023.1,17.4,0000.0,0002.23,0001.71,0001.53
2024-02-06 05:45:00,SystemResetWarning,0827.6,5.00,000.00,021.4,020.6,000.0,029.8,023.1,17.2,0000.0,0002.23,0001.71,0001.51
2024-02-06 05:46:00,SystemResetWarning,0827.5,5.00,000.00,021.3,020.6,000.0,029.8,023.1,17.0,0000.0,0002.22,0001.70,0001.50
2024-02-06 05:47:00,SystemResetWarning,0827.7,5.00,000.00,021.3,020.6,000.0,029.8,023.1,16.9,0000.0,0002.30,0001.73,0001.49
2024-02-06 05:48:00,SystemResetWarning,0827.8,5.00,000.00,021.3,020.5,000.0,029.8,023.1,16.8,0000.0,0002.28,0001.72,0001.48
2024-02-06 05:49:00,SystemResetWarning,0827.7,5.00,000.00,021.3,020.6,000.0,029.7,023.0,16.8,0000.0,0002.25,0001.70,0001.47
2024-02-06 05:50:00,SystemResetWarning,0827.5,4.99,000.00,021.3,020.5,000.0,029.7,023.1,16.8,0000.0,0002.23,0001.68,0001.46
2024-02-06 05:51:00,SystemResetWarning,0827.4,5.01,000.00,021.3,020.6,000.0,029.8,023.0,16.7,0000.0,0002.15,0001.64,0001.44
2024-02-06 05:52:00,SystemResetWarning,0827.4,5.00,000.00,021.3,020.6,000.0,029.7,023.0,16.8,0000.0,0003.09,0001.62,0001.43
2024-02-06 05:53:00,SystemResetWarning,0827.4,5.00,000.00,021.3,020.6,000.0,029.7,023.0,16.8,0000.0,0003.02,0001.58,0001.42
2024-02-06 05:54:00,SystemResetWarning,0827.4,5.00,000.00,021.3,020.6,000.0,029.7,023.0,16.8,0000.0,0003.00,0001.57,0001.41
2024-02-06 05:55:00,SystemResetWarning,0827.4,5.00,000.00,021.3,020.6,000.0,029.7,023.0,16.8,0000.0,0003.01,0001.56,0001.41
2024-02-06 05:56:00,SystemResetWarning,0827.3,5.00,000.00,021.3,020.6,000.0,029.7,023.0,16.9,0000.0,0003.58,0001.58,0001.41
2024-02-06 05:57:00,SystemResetWarning,0827.3,5.00,000.00,021.3,020.6,000.0,029.7,023.0,16.9,0000.0,0003.58,0001.57,0001.40
2024-02-06 05:58:00,SystemResetWarning,0827.2,5.00,000.00,021.3,020.6,000.0,029.7,023.0,16.9,0000.0,0003.47,0001.51,0001.38
2024-02-06 05:59:00,SystemResetWarning,0827.3,5.00,000.00,021.3,020.6,000.0,029.7,023.0,16.9,0000.0,0003.39,0001.47,0001.36
